Location: New Frontier Mobile Home Park
(32.8448°N, 116.9675°W)
Time: 22:57:11
(UTC+00:00)

Cosmos 1844 Rocket - Pass Details

Date: 14 July 2020
Orbit: 826 x 843 km, 71.0° (Epoch: 05 August)

Event Time Altitude Azimuth Distance (km) Brightness Sun altitude
Rises 03:20:12 0° 342° (NNW) 3,367 6.6 -5.0°
Reaches altitude 10° 03:22:39 10° 345° (NNW) 2,431 5.8 -5.5°
Maximum altitude 03:28:12 68° 68° (ENE) 890 2.7 -6.5°
Drops below altitude 10° 03:33:43 10° 151° (SSE) 2,423 4.6 -7.5°
Enters shadow 03:35:01 - 153° (SSE) 2,914 5.0 -7.7°
